Notices

Please take our survey and provide feedback: https://eccc.sondage-survey.ca/f/LanguageSelection.aspx?s=442ca660-fcf1-47c0-95a9-59707d6fd709

Please note that for the Engineering Climate Datasets, IDF dataset is available through this link.  Intensity-Duration-Frequency (IDF) Files: Includes the latest version of short-duration rainfall Intensity-Duration-Frequency (IDF) statistics in the form of tables and graphs with accompanying documentation for various locations across Canada.  Current IDF files can be accessed through our station finder application or downloaded for each province and territory across Canada.  In addition, historical versions of IDF files are also available for download.  Updates of IDF files are provided approximately every two years depending on the availability of data.   Thank you for your patience as we enhance our systems.

Hourly Data Report for November 17, 2020

MUSKOKA
ONTARIO
Current Station Operator: NAVCAN

44°58'29.000" N
79°18'12.000" W
281.90 m
6115529
71532
YQA

Download Data

Hourly Data (November 2020)
Hourly Data Report for November 17, 2020
TIME
LST
Temp Definition
°C
Dew Point Definition
°C
Rel Hum Definition
%
Precip. Amount Definition
mm

Wind Dir Definition
10's deg

Wind Spd Definition
km/h
Visibility Definition
km
Stn Press Definition
kPa
Hmdx Definition


Wind Chill Definition


Weather Definition


00:00 -0.1 -1.0 94 LegendMM 23 11 16.1 97.75   -4 Snow
01:00 -0.1 -0.8 95 LegendMM 32 11 16.1 97.73   -4 Snow
02:00 -0.8 -2.2 90 LegendMM 33 9 16.1 97.73   -4 Snow
03:00 -1.0 -3.1 85 LegendMM 33 11 16.1 97.74   -5 Snow
04:00 -2.1 -4.1 86 LegendMM 31 8 16.1 97.73   -5 LegendNANA
05:00 -1.4 -3.8 84 LegendMM 29 8 16.1 97.77   -4 LegendNANA
06:00 -1.5 -4.1 82 LegendMM 31 9 16.1 97.81   -5 LegendNANA
07:00 -1.6 -4.6 80 LegendMM 31 11 16.1 97.87   -5 LegendNANA
08:00 -2.3 -5.0 82 LegendMM 32 9 16.1 97.94   -6 LegendNANA
09:00 -2.0 -4.2 85 LegendMM 34 21 16.1 98.03   -8 Snow
10:00 -2.0 -4.7 82 LegendMM 33 15 16.1 98.09   -7 Snow
11:00 -2.5 -5.8 78 LegendMM 33 24 16.1 98.19   -9 LegendNANA
12:00 -2.6 -7.7 68 LegendMM 32 21 16.1 98.24   -9 Snow
13:00 -3.0 -8.2 68 LegendMM 34 21 16.1 98.31   -9 Snow
14:00 -3.2 -8.1 69 LegendMM 31 22 16.1 98.39   -10 Snow
15:00 -4.6 -11.0 61 LegendMM 32 30 16.1 98.50   -12 LegendNANA
16:00 -5.7 -11.2 66 LegendMM 34 22 16.1 98.66   -13 LegendNANA
17:00 -6.9 -12.2 66 LegendMM 33 24 16.1 98.79   -15 LegendNANA
18:00 -7.6 -12.5 68 LegendMM 33 26 16.1 98.89   -16 LegendNANA
19:00 -8.1 -12.8 69 LegendMM 34 18 16.1 99.01   -15 LegendNANA
20:00 -8.3 -13.0 69 LegendMM 32 18 16.1 99.09   -15 Snow
21:00 -8.3 -12.6 72 LegendMM 33 17 16.1 99.17   -15 Snow
22:00 -8.2 -12.5 72 LegendMM 32 15 16.1 99.21   -15 Snow
23:00 -8.2 -12.5 71 LegendMM 32 24 16.1 99.27   -16 Snow

Notes on Data Quality.

Legend

  • E = Estimated
  • M = Missing
  • NA = Not Available*
  • [empty] = Indicates an unobserved value
Date modified: